EHI
0 0 0 0 0 0 0 0 0 0 0 0 0 0 0 0 0 0 0 0 0 0 0 0 0 0 0 0 0 0 0 0 0 1 2 3 3 3 3 3 3 3 4 5
0 0 0 0 0 0 0 0 0 0 0 0 0 0 0 0 0 0 0 0 0 0 0 0 0 0 0 0 0 0 0 0 0 0 1 2 3 3 3 3 2 2 3 4
0 0 0 0 0 0 0 0 0 0 1 1 1 0 0 0 0 0 0 0 0 0 0 0 0 0 0 0 0 0 0 0 0 0 0 1 1 2 2 1 1 2 3 3
0 0 0 0 0 0 0 1 1 1 2 2 2 1 0 0 0 0 0 0 0 0 0 0 0 0 0 0 0 0 0 0 0 0 0 0 0 1 1 1 1 3 3 3
0 0 0 0 0 0 0 1 2 2 2 2 2 1 0 0 0 0 0 0 0 0 0 0 0 0 0 0 0 0 0 0 0 0 0 0 0 0 1 2 3 3 3 3
0 0 0 0 0 0 0 1 1 1 1 1 1 1 0 0 0 0 0 0 0 0 0 0 0 0 0 0 0 0 0 0 0 0 0 0 0 0 1 2 3 3 3 3
0 0 0 0 0 0 0 0 0 0 0 0 0 0 0 0 0 0 0 0 0 0 0 0 0 0 0 0 0 0 0 0 0 0 0 0 0 0 1 1 2 3 3 3
0 0 0 0 0 0 0 0 0 0 0 0 0 0 0 0 0 0 0 0 0 0 0 0 0 0 0 0 0 0 0 0 0 0 0 0 0 0 0 0 1 2 2 1
0 0 0 0 0 0 0 0 0 0 0 0 0 0 0 0 0 0 0 0 0 0 0 0 0 0 0 0 0 0 0 0 0 0 0 0 0 0 0 0 0 1 1 0
0 0 0 0 0 0 0 0 0 0 0 0 0 0 0 0 0 0 0 0 0 0 0 0 0 0 0 0 0 0 0 0 0 0 0 0 0 0 0 0 0 0 0 0
0 0 0 0 0 0 0 0 0 0 0 0 0 0 0 0 0 0 0 0 0 0 0 0 0 0 0 0 0 0 0 0 0 0 0 0 0 0 0 0 0 0 0 0
0 0 0 0 0 0 0 0 0 0 0 0 0 0 0 0 0 0 0 0 0 0 0 0 0 0 0 0 0 0 0 0 0 0 0 0 0 0 0 0 0 0 0 0
0 0 0 0 0 0 0 0 0 0 0 0 0 0 0 0 0 0 0 0 0 0 0 0 0 0 0 0 0 0 0 0 0 0 0 0 0 0 0 0 0 0 0 0
0 0 0 0 0 0 0 0 0 0 0 0 0 0 0 0 0 0 0 0 0 0 0 0 0 0 0 0 0 0 0 0 0 0 0 0 0 0 0 0 0 0 0 0
0 0 0 0 0 0 0 0 0 0 0 0 0 0 0 0 0 0 0 0 0 0 0 0 0 0 0 0 0 0 0 0 0 0 0 0 0 0 0 0 0 0 0 0
0 0 0 0 0 0 0 0 0 0 0 0 0 0 0 0 0 0 0 0 0 0 0 0 0 0 0 0 0 0 0 0 0 0 0 0 0 0 0 0 0 0 0 0
0 0 0 0 0 0 0 0 0 0 0 0 0 0 0 0 0 0 0 0 0 0 0 0 0 0 0 0 0 0 0 0 0 0 0 0 0 0 0 0 0 0 0 0
0 0 0 0 0 0 0 0 0 0 0 0 0 0 0 0 0 0 0 0 0 0 0 0 0 0 0 0 0 0 0 0 0 0 0 0 0 0 0 0 0 0 0 0
0 1 1 1 0 0 0 0 0 0 0 0 0 0 0 0 0 0 0 0 0 0 0 0 0 0 0 0 0 0 0 0 0 0 0 0 0 0 0 0 0 0 0 0
0 1 1 1 0 0 0 0 0 0 0 0 0 0 0 0 0 0 0 0 0 0 0 0 0 0 0 0 0 0 0 0 0 0 0 0 0 0 0 0 0 0 0 0
0 0 0 0 0 0 0 0 0 0 0 0 0 0 0 0 0 0 0 0 0 0 0 0 0 0 0 0 0 0 0 0 0 0 0 0 0 0 0 0 0 0 0 0
0 0 0 0 0 0 0 0 0 1 0 0 0 0 0 0 0 0 0 0 0 0 0 0 0 0 0 0 0 0 0 0 0 0 0 0 0 0 0 0 0 0 0 0
0 0 0 0 0 0 0 0 0 0 0 0 0 0 0 0 0 0 0 0 0 0 0 0 0 0 0 0 0 0 0 0 0 0 0 0 0 0 0 0 0 0 0 0
0 0 0 0 0 0 0 0 0 0 0 0 0 0 0 0 0 0 0 0 0 0 0 0 0 0 0 0 0 0 0 0 0 0 0 0 0 0 0 0 0 0 0 0
0 0 0 0 0 0 0 0 0 0 0 0 0 0 0 0 0 0 0 0 0 0 0 0 0 0 0 0 0 0 0 0 0 0 0 0 0 0 0 0 0 0 0 0
0 0 0 0 0 0 0 0 0 0 0 0 0 0 0 0 0 0 0 0 0 0 0 0 0 0 0 0 0 0 0 0 0 0 0 0 0 0 0 0 0 0 0 0
0 0 0 0 0 0 0 0 0 0 0 0 0 0 0 0 0 0 0 0 0 0 0 0 0 0 0 0 0 0 0 0 0 0 0 0 0 0 0 0 0 0 0 0
Wind_Speed
0 1 3 6 7 7 5 3 3 1 0 1 2 2 1 1 1 2 2 2 2 2 2 2 1 1 1 2 2 2 2 2 2 2 1 1 1 1 1 1 1 1 1 1
2 4 8 10 10 8 5 4 3 3 1 2 2 2 2 2 1 1 1 2 2 2 2 1 1 1 1 1 2 2 2 2 2 2 1 1 1 1 1 1 1 0 1 1
2 4 4 6 7 6 4 4 3 2 2 3 4 3 1 1 1 1 2 2 2 2 2 1 1 1 2 2 2 2 2 2 2 2 2 2 1 1 1 1 0 1 1 1
1 4 4 1 2 3 4 5 4 3 3 2 2 4 2 0 1 2 3 2 2 2 2 1 1 0 1 1 2 2 2 2 2 2 2 1 1 1 1 0 0 1 1 0
2 2 1 3 5 3 2 3 4 4 4 4 4 5 4 3 2 2 2 2 2 1 1 1 1 0 1 1 1 1 1 2 2 2 2 1 1 1 1 0 0 1 1 1
2 1 0 3 6 4 3 3 4 3 3 4 4 4 4 5 5 4 3 2 2 2 2 2 1 1 2 1 1 1 2 2 2 2 2 2 1 1 1 1 0 1 1 1
1 1 1 4 6 4 3 4 4 2 2 2 2 3 4 4 4 3 3 2 2 2 2 1 1 2 2 1 0 1 1 1 1 1 2 2 1 1 0 0 1 1 1 2
2 1 3 5 3 2 4 3 2 2 1 1 1 1 1 2 3 3 3 3 2 3 2 2 1 2 2 1 1 0 1 1 1 1 1 1 1 0 0 1 1 1 2 3
3 4 4 1 0 2 2 1 2 1 1 0 0 2 2 2 2 2 2 2 2 2 2 2 1 1 1 2 1 1 1 1 0 0 0 0 1 1 0 0 0 1 1 2
1 1 1 1 1 1 1 1 2 1 1 0 0 1 1 1 1 1 2 2 2 2 1 1 1 1 1 1 0 1 1 0 0 1 0 1 1 0 0 1 1 1 1 2
0 1 2 2 1 1 1 2 2 1 0 1 1 0 0 0 0 0 1 1 1 1 0 1 1 1 1 1 1 1 0 1 0 1 1 0 0 0 1 2 3 3 2 2
4 5 3 4 4 2 1 2 1 1 2 1 1 1 0 0 1 0 1 1 1 1 1 1 1 2 2 1 1 1 0 1 0 0 1 1 0 1 2 2 3 3 4 3
4 3 4 4 3 2 2 1 0 0 1 0 1 1 1 0 1 1 1 1 1 1 1 1 1 2 2 1 0 1 1 1 1 1 1 1 1 1 2 3 4 3 3 3
2 2 0 1 2 2 1 1 0 1 1 1 1 1 1 0 0 1 1 2 1 1 1 1 1 2 2 1 0 0 1 2 2 2 2 2 2 2 1 1 1 3 4 4
1 2 3 2 1 1 0 1 2 2 2 1 1 0 0 0 1 2 2 1 0 1 1 0 1 2 2 1 0 1 1 1 1 1 1 1 1 1 1 1 1 1 2 3
2 0 0 0 0 0 0 1 1 0 0 0 1 1 1 2 2 2 1 1 1 1 2 1 2 3 2 0 0 1 1 2 2 1 1 0 0 0 0 1 1 1 1 2
2 1 1 1 1 1 1 2 2 2 1 1 2 2 1 1 1 1 2 2 1 2 3 2 3 3 1 1 1 1 1 2 2 1 1 1 1 1 1 1 1 1 2 2
5 5 4 4 3 2 2 2 2 2 2 3 2 1 1 1 2 3 3 2 1 2 3 3 2 1 1 1 1 1 1 1 1 1 1 1 1 1 1 1 1 1 1 1
2 3 2 2 2 2 2 2 2 3 3 3 2 3 3 3 3 3 2 1 1 3 4 3 2 1 1 2 1 1 1 1 2 2 1 1 1 0 1 1 1 1 1 0
1 0 0 1 1 1 2 2 3 3 3 3 2 2 2 3 3 2 1 2 4 4 4 3 2 1 2 2 1 1 1 1 1 1 1 0 1 1 1 1 1 1 0 1
1 1 1 1 2 2 2 1 2 2 3 2 2 3 3 3 3 2 2 2 4 3 3 3 2 2 2 1 1 1 1 1 1 1 1 1 1 1 1 1 1 1 1 1
1 1 2 2 2 3 3 2 2 2 3 2 3 2 2 2 3 2 3 4 4 3 2 2 2 3 2 1 1 1 1 1 1 1 1 1 1 2 1 1 1 1 1 1
2 2 2 2 2 3 3 2 2 2 3 3 3 3 3 3 3 3 3 4 3 4 3 3 4 4 4 1 1 1 1 1 1 1 1 1 2 2 2 2 1 1 1 2
2 2 2 2 2 2 3 4 3 3 3 3 4 4 3 2 3 3 3 4 4 4 3 4 5 6 4 2 1 1 1 1 1 1 1 1 1 2 2 2 2 1 2 2
2 2 2 2 2 3 4 3 3 3 2 2 3 3 3 3 3 3 2 3 4 4 3 4 6 6 3 2 2 2 1 1 1 1 1 1 1 1 2 2 2 2 2 2
3 3 3 4 4 3 3 2 2 3 2 2 3 3 3 2 3 2 2 3 4 4 3 3 3 4 3 3 2 2 2 1 1 1 1 2 2 2 2 2 2 2 2 2
3 3 2 3 3 3 3 2 3 3 3 3 4 4 3 3 2 2 3 2 3 3 3 3 3 3 3 3 3 2 2 2 1 1 1 1 2 2 2 3 2 2 2 2
Wind_Direction
145 326 45 40 29 33 59 110 128 146 90 295 311 325 345 35 45 42 37 11 356 340 325 313 311 189 171 165 161 151 142 147 178 186 183 168 172 200 232 236 230 235 264 292
23 55 61 46 30 28 29 47 82 80 13 320 329 6 36 33 52 43 349 336 332 330 327 309 287 248 166 162 167 148 142 161 178 174 166 166 192 214 243 258 270 312 312 343
335 338 47 30 8 19 35 50 76 68 302 333 0 353 332 348 30 4 326 332 337 328 316 289 275 197 186 194 162 148 163 177 181 176 167 192 195 174 236 259 302 334 326 26
6 30 55 273 317 15 54 56 48 45 -0 5 354 332 325 44 78 351 343 339 333 337 334 318 305 310 191 158 139 150 169 180 177 170 177 186 159 190 251 272 345 326 319 289
77 65 52 335 345 345 57 33 36 39 16 9 11 22 8 0 12 336 318 315 314 307 327 351 348 45 84 94 112 141 175 191 184 167 161 158 169 233 230 142 342 314 288 274
74 86 148 303 323 340 69 11 340 22 10 350 8 17 316 328 345 349 347 342 347 1 23 29 2 71 81 56 43 207 207 196 172 157 156 174 196 212 200 148 227 303 324 305
92 134 265 299 321 22 69 269 296 308 304 316 303 242 260 310 335 348 352 354 13 37 38 10 19 71 72 48 296 248 199 138 125 153 175 189 184 176 141 77 30 360 332 314
71 60 284 311 18 71 232 256 288 316 316 359 332 311 323 340 343 355 10 16 34 48 32 13 43 74 74 341 282 240 114 107 115 170 184 157 150 187 73 95 34 326 336 325
173 206 242 310 172 243 217 266 299 317 300 97 43 314 313 331 341 7 24 19 29 62 42 10 10 76 85 281 280 93 93 90 143 176 176 144 150 184 318 355 263 292 318 309
62 282 297 325 345 346 350 289 276 268 268 175 220 289 313 322 340 3 10 12 20 50 41 345 328 337 258 290 54 86 85 274 223 144 40 4 18 143 181 265 262 261 245 265
330 266 5 335 323 304 311 323 346 5 1 180 147 280 193 226 256 326 345 343 1 35 6 318 330 322 302 337 74 93 29 277 220 155 184 213 11 294 236 242 221 211 226 219
220 222 184 248 265 261 290 303 324 43 20 17 116 129 48 271 245 242 299 338 350 345 326 303 324 330 318 312 92 115 326 301 274 236 227 199 190 340 340 290 286 240 223 217
205 215 193 219 238 231 224 252 278 102 132 63 59 107 92 268 242 258 282 298 301 275 258 265 302 310 304 296 54 134 225 266 273 241 229 221 204 225 307 337 352 338 290 269
172 114 42 245 235 241 197 180 78 43 64 114 124 80 80 28 298 264 250 250 265 271 272 262 269 280 284 320 47 258 265 253 262 256 226 212 207 221 215 218 308 321 317 302
223 167 203 245 275 257 6 70 61 33 43 37 38 84 140 179 259 267 264 260 23 327 280 272 275 281 290 309 274 279 283 275 282 289 261 211 205 218 222 223 234 268 310 324
249 279 196 191 300 277 358 89 112 238 154 335 307 289 249 230 245 266 262 199 122 275 260 243 260 267 274 313 325 314 306 298 295 275 270 252 247 231 244 243 236 240 257 270
171 228 248 273 274 276 255 232 208 201 214 237 237 246 260 264 302 293 276 260 233 246 242 233 255 275 271 214 199 258 300 315 306 288 243 220 218 216 210 209 216 228 249 260
193 202 205 205 211 247 266 249 218 212 222 234 226 213 208 214 233 252 262 274 302 304 281 257 253 274 283 228 219 252 274 290 284 261 248 239 228 220 199 190 195 209 269 302
193 206 224 225 222 220 237 233 227 236 232 218 205 215 225 229 231 241 255 241 240 262 269 261 250 248 269 266 267 263 275 287 292 285 264 259 252 206 167 173 188 214 198 145
23 3 302 303 288 265 264 250 238 236 237 219 209 212 229 243 236 227 213 228 230 231 236 237 237 252 266 272 285 274 273 277 267 275 275 232 221 213 208 194 188 201 185 167
343 305 316 322 306 300 288 256 237 246 249 228 213 219 229 244 235 209 201 256 266 254 232 224 227 242 257 270 279 268 267 273 256 244 235 222 208 202 208 198 192 200 191 173
289 276 284 297 309 307 299 275 241 240 240 237 236 230 234 251 246 237 232 231 241 234 223 217 222 230 240 275 271 266 271 279 270 242 219 205 193 195 203 195 202 214 187 165
265 271 277 278 273 280 297 287 260 239 227 227 224 226 232 238 226 214 253 257 233 218 215 224 227 227 234 239 247 264 271 281 281 244 215 205 197 194 195 193 195 180 160 158
266 274 267 261 269 298 298 288 273 258 246 239 231 226 223 243 262 244 233 232 223 218 218 226 225 224 221 204 210 246 263 265 274 259 219 207 195 182 180 181 181 175 159 152
273 271 273 271 276 270 265 276 283 277 268 263 261 254 241 221 227 244 239 225 219 214 226 221 217 220 211 197 205 221 237 240 242 236 221 215 208 195 186 176 166 158 151 147
266 261 256 248 242 245 251 254 254 258 257 264 273 268 262 257 240 231 231 227 223 215 217 217 214 214 207 203 212 219 216 219 239 237 227 212 201 195 186 170 152 149 154 154
272 270 268 278 270 253 248 241 241 250 245 240 256 257 249 248 243 239 241 235 223 218 221 220 211 203 200 201 207 217 213 205 216 234 243 218 198 186 181 172 160 152 153 149